Location: Newark
(43.0000°N, 1.6781°W)
Time: 08:51:50
(UTC+00:00)

Explorer 11/Cluster Stage 4 - All Passes

Search period start: 07 October 2022 00:00
Search period end: 17 October 2022 00:00
Orbit: 466 x 1249 km, 28.8° (Epoch: 06 October)

Date Brightness Start Highest point End Pass type
(mag) Time Alt. Az. Time Alt. Az. Time Alt. Az.
07 Oct - 09:36:56 10° SSW 09:42:40 21° SSE 09:48:26 10° ESE daylight
07 Oct - 11:24:10 10° SW 11:30:51 28° S 11:37:12 10° ESE daylight
07 Oct - 13:13:00 10° WSW 13:18:58 23° SSW 13:24:26 10° SE daylight
07 Oct - 15:04:45 10° SW 15:06:34 11° SSW 15:08:19 10° SSW daylight
08 Oct - 07:40:56 10° SSE 07:42:08 10° SSE 07:43:20 10° SE daylight
08 Oct - 09:24:02 10° SSW 09:29:55 23° SSE 09:35:54 10° ESE daylight
08 Oct - 11:11:24 10° SW 11:18:06 29° S 11:24:35 10° SE daylight
08 Oct - 13:00:17 10° WSW 13:06:15 23° SSW 13:11:46 10° SSE daylight
08 Oct - 14:52:59 10° SW 14:53:51 10° SSW 14:54:42 10° SSW daylight
09 Oct - 07:27:04 10° SSE 07:29:22 11° SSE 07:31:44 10° SE daylight
09 Oct - 09:11:12 10° SW 09:17:09 24° SSE 09:23:18 10° ESE daylight
09 Oct - 10:58:39 10° WSW 11:05:22 29° S 11:11:56 10° SE daylight
09 Oct - 12:47:37 10° WSW 12:53:29 22° SSW 12:59:03 10° SSE daylight
10 Oct - 07:13:44 10° S 07:16:37 13° SSE 07:19:36 10° SE daylight
10 Oct - 08:58:25 10° SW 09:04:23 25° SSE 09:10:39 10° ESE daylight
10 Oct - 10:45:56 10° WSW 10:52:35 29° S 10:59:14 10° SE daylight
10 Oct - 12:34:58 10° WSW 12:40:43 21° SSW 12:46:14 10° SSE daylight
11 Oct - 07:00:38 10° S 07:03:51 13° SSE 07:07:15 10° SE daylight
11 Oct - 08:45:43 10° SW 08:51:38 25° SSE 08:57:56 10° ESE daylight
11 Oct - 10:33:17 10° WSW 10:39:49 28° S 10:46:29 10° SE daylight
11 Oct - 12:22:24 10° WSW 12:27:57 20° SSW 12:33:21 10° SSE daylight
12 Oct - 06:47:42 10° S 06:51:07 14° SSE 06:54:46 10° SE daylight
12 Oct - 08:33:03 10° SW 08:38:52 26° S 08:45:10 10° ESE daylight
12 Oct - 10:20:40 10° WSW 10:27:03 28° S 10:33:40 10° SE daylight
12 Oct - 12:09:54 10° WSW 12:15:10 19° SSW 12:20:22 10° SSE daylight
13 Oct - 06:34:52 10° S 06:38:23 15° SSE 06:42:11 10° SE daylight
13 Oct - 08:20:26 10° SW 08:26:07 26° S 08:32:23 10° ESE daylight
13 Oct - 10:08:06 10° WSW 10:14:17 27° S 10:20:48 10° SE daylight
13 Oct - 11:57:28 10° WSW 12:02:22 17° SSW 12:07:17 10° SSE daylight
14 Oct - 06:22:07 10° S 06:25:40 15° SSE 06:29:33 10° ESE daylight
14 Oct - 08:07:53 10° SW 08:13:23 25° S 08:19:33 10° ESE daylight
14 Oct - 09:55:35 10° WSW 10:01:31 25° S 10:07:52 10° SE daylight
14 Oct - 11:45:08 10° WSW 11:49:35 16° SSW 11:54:04 10° S daylight
15 Oct - 06:09:27 10° SSW 06:12:58 16° SSE 06:16:52 10° SE daylight
15 Oct - 07:55:22 10° SW 08:00:41 25° S 08:06:40 10° ESE daylight
15 Oct - 09:43:07 10° WSW 09:48:46 24° S 09:54:52 10° SE daylight
15 Oct - 11:32:58 10° SW 11:36:47 14° SSW 11:40:42 10° S daylight
16 Oct - 05:56:51 10° SSW 06:00:18 16° SSE 06:04:08 10° SE daylight
16 Oct - 07:42:54 10° SW 07:47:58 24° S 07:53:46 10° SE daylight
16 Oct - 09:30:42 10° WSW 09:36:01 22° S 09:41:49 10° SE daylight
16 Oct - 11:21:00 10° SW 11:24:00 12° SSW 11:27:04 10° S daylight
